Regional Weather Roundup
Issued by NWS

Home | Current Version | Previous Version | Graphics & Text | Print | Product List | Glossary On
Versions: 1 2 3 4 5 6 7 8 9 10 11 12 13 14 15 16 17 18 19 20 21 22 23 24 25 26 27
000
ASUS45 KCYS 231910
RWRWY

WYOMING REGIONAL WEATHER ROUNDUP
NATIONAL WEATHER SERVICE CHEYENNE WY
100 PM MDT WED APR 23 2014

NOTE:  "FAIR" INDICATES FEW OR NO CLOUDS BELOW 12,000 FEET
WITH NO SIGNIFICANT WEATHER AND/OR OBSTRUCTIONS TO VISIBILITY.

WYZ001-232000-
YELLOWSTONE NATIONAL PARK

CITY           SKY/WX    TMP DP  RH WIND       PRES   REMARKS
LK YELLOWSTONE   N/A     32  11  41 W14G21    29.84R WCI  22
W YELLOWSTONE  NOT AVBL

$$
WYZ002>013-054>058-071-098>099-232000-
NORTHERN WYOMING

CITY           SKY/WX    TMP DP  RH WIND       PRES   REMARKS
JACKSON        MOSUNNY   37  18  44 W13G25    29.90R WCI  29
CODY           MOSUNNY   48  14  25 W24G36    29.73R
GREYBULL       SUNNY     53  21  28 N17G24    29.71S
WORLAND        CLOUDY    50  24  36 NW9       29.73R
SHERIDAN         N/A     43  14  31 SW32G44     N/A
BUFFALO        CLOUDY    46  29  51 N28G38    29.71R
GILLETTE       CLOUDY    44  36  73 NW21G31   29.70R
HULETT         CLOUDY    43  37  81 NW7       29.70
NEWCASTLE      FAIR      54  36  50 NW32G39   29.64

$$
WYZ014>020-022>026-101>103-232000-
CENTRAL WYOMING

CITY           SKY/WX    TMP DP  RH WIND       PRES   REMARKS
BIG PINEY      SUNNY     41   9  26 NW14G25   29.91R
PINEDALE       MOCLDY    36  14  41 W23G35    29.90R WCI  24
DUBOIS         MOCLDY    37   9  30 NW22G33   29.80R WCI  27
LANDER         SUNNY     50   8  18 W17G32    29.77R
RIVERTON       MOSUNNY   52   7  16 W23G32    29.76R
CASPER         MOSUNNY   55  13  18 W26G37    29.73R
DOUGLAS        SUNNY     59  13  16 W33G52    29.68R

$$
WYZ021-027>030-104>119-232000-
SOUTHERN WYOMING

CITY           SKY/WX    TMP DP  RH WIND       PRES   REMARKS
EVANSTON       PTSUNNY   38  17  42 NW20G26   30.00R WCI  28
FORT BRIDGER   MOCLDY    39  22  49 W20G31    30.00S WCI  30
ROCK SPRINGS   MOSUNNY   42  10  27 W28G39    29.91S
DIXON          CLOUDY    45  20  37 W15G21    29.91F
RAWLINS        SUNNY     46  12  25 W29G37    29.83F
SARATOGA       CLOUDY    41  21  45 W22       29.88S
LARAMIE        MOSUNNY   50  21  32 W28G36    29.76R
CHEYENNE       SUNNY     58  24  27 W24G37    29.68F
TORRINGTON     SUNNY     62  20  19 W35G48    29.66R
PINE BLUFFS    FAIR      64  28  25 W31G39    29.65R

$$



USA.gov is the U.S. government's official web portal to all federal, state and local government web resources and services.